Flag for Canada Weather past 2 weeks in Pickering, Ontario, Canada

52 °F


Feels Like: 47 °F
Forecast: 49 / 57 °F
Wind: 13 mph from Southeast

Location: Toronto Buttonville

Current Time: Oct 4, 2015 at 7:26:57 AM

Latest Report: Oct 4, 2015 at 6:00 AM

Visibility: 15 mi

Pressure: 30.33 "Hg

Humidity: 67%

Dew point: 41 °F

Location of PickeringLocation

Historic Weather in Pickering — Graph


Pickering temperature yesterday

Maximum temperature yesterday: 52 °F (at 1:00 PM)
Minimum temperature yesterday: 43 °F (at 4:00 AM)
Average temperature yesterday: 47 °F

Past Weeks' High & Low Weather Summary

High77 °F (Sep 23, 3:00 PM)100% (Sep 23, 6:00 AM)30.49 "Hg (Sep 23, 6:00 AM)
Low39 °F (Oct 1, 6:00 AM)34% (Oct 1, 5:00 PM)29.65 "Hg (Sep 19, 2:00 PM)
Average59 °F71%30.24 "Hg
* Reported Sep 19 6:00 AM — Oct 4 6:00 AM, Pickering, Weather by CustomWeather, © 2015

Note: Actual official high and low records may vary slightly from our data, if they occured in-between our weather recording intervals... More about our weather records


Pickering weather history for previous 24 hours

Time TempWeatherWind HumidityBarometerVisibility
6:00 AM
Sun, Oct 4
52 °FOvercast.13 mph67%30.33 "Hg15 mi
5:00 AM50 °FMostly cloudy.12 mph71%30.34 "Hg15 mi
4:00 AM50 °FOvercast.7 mph71%30.33 "Hg15 mi
3:00 AM50 °FPassing clouds.9 mph67%30.34 "Hg15 mi
2:00 AM50 °FOvercast.9 mph67%30.35 "Hg15 mi
1:00 AM50 °FPassing clouds.10 mph67%30.36 "Hg15 mi
12:00 AM50 °FPassing clouds.14 mph62%30.37 "Hg15 mi
11:00 PM
Sat, Oct 3
50 °FPassing clouds.12 mph62%30.38 "Hg15 mi
10:00 PM48 °FPartly cloudy.12 mph66%30.39 "Hg15 mi
9:00 PM48 °FPassing clouds.10 mph66%30.40 "Hg14 mi
8:00 PM46 °FSprinkles. Passing clouds.8 mph76%30.40 "Hg12 mi
7:00 PM48 °FLight rain. More clouds than sun.9 mph71%30.40 "Hg12 mi
5:00 PM50 °FOvercast.14 mph58%30.40 "Hg15 mi
4:45 PM50 °FLight rain. Overcast.16 mph54%30.40 "Hg15 mi
4:00 PM52 °FOvercast.18 mph44%30.40 "Hg15 mi
3:00 PM52 °FMostly cloudy.15 mph44%30.40 "Hg15 mi
2:00 PM52 °FMostly cloudy.18 mph44%30.40 "Hg15 mi
1:00 PM52 °FBroken clouds.16 mph44%30.42 "Hg15 mi
12:00 PM50 °FMore clouds than sun.17 mph43%30.43 "Hg15 mi
11:00 AM50 °FMostly cloudy.20 mph43%30.44 "Hg15 mi
10:00 AM46 °FBroken clouds.15 mph53%30.45 "Hg15 mi
9:00 AM45 °FBroken clouds.18 mph57%30.46 "Hg15 mi
8:00 AM43 °FPassing clouds.15 mph61%30.45 "Hg15 mi
7:00 AM43 °FPassing clouds.13 mph57%30.45 "Hg15 mi
Weather by CustomWeather, © 2015

See weather overviewHow to use our weather pages